Location: Hains Lake
(37.8540°N, 99.8578°W)
Time: 16:29:00
(UTC+00:00)

Cosmos 1850 Rocket - Pass Details

Date: 11 December 2019
Orbit: 754 x 786 km, 74.0° (Epoch: 27 January)

Event Time Altitude Azimuth Distance (km) Brightness Sun altitude
Exits shadow 12:39:59 - 335° (NNW) 2,681 6.4 -12.5°
Reaches altitude 10° 12:40:51 10° 334° (NNW) 2,351 6.1 -12.3°
Maximum altitude 12:46:06 59° 256° (WSW) 907 4.1 -11.4°
Drops below altitude 10° 12:51:18 10° 178° (S) 2,331 6.8 -10.4°
Sets 12:53:42 0° 174° (S) 3,252 7.6 -10.0°
